User: anonymous   Login
Location: Vancouver
(49.2500°N, 123.1330°W)
Time: 16:55:12
(UTC-08:00)
Language:

CZ-2C R/B - Orbit

View from above orbital plane
View from above orbital plane
View from above satellite
View from above satellite

Ground track
Ground track

The orbit data is extracted from the following two-line orbital elements,

1 28480U 04046B   14331.50588436  .00000225  00000-0  10017-3 0  4960
2 28480 098.1106 115.1180 0143682 098.9746 303.8459 14.25394977521352
Epoch (UTC): 27 November 2014 12:08:28
Eccentricity: 0.0143682
inclination: 98.1106°
perigee height: 704 km
apogee height: 910 km
right ascension of ascending node: 115.1180°
argument of perigee: 98.9746°
revolutions per day: 14.25394977
mean anomaly at epoch: 303.8459°
orbit number at epoch: 52135

The dashed part of the orbit path shows where the satellite is in the earth's shadow,  

DLR